Terminal Aerodrome Forecast
Issued by NWS

Home | Current Version | Previous Version | Text Only | Print | Product List | Glossary On
Versions: 1 2 3 4 5 6 7 8 9 10 11 12 13 14 15
432
FTUS46 KHNX 190331 AAB
TAFFAT
TAF AMD
KFAT 190331Z 1904/1924 13014KT P6SM -RA OVC070
      TEMPO 1904/1908 14017G25KT 2SM SHRA BR BKN030 OVC050
     FM191400 14010G20KT 3SM -SHRA BR SCT015 OVC030
     FM192000 16008KT 4SM -SHRA BKN025 OVC045 PROB30 1920/1924 -TSRA
      BKN040CB=

USA.gov is the U.S. government's official web portal to all federal, state and local government web resources and services.